Overview Statistics Trail Chart Weather Telemetry Raw packets
 

This is the latest recevied weather packets stored in our database for station/object PA3BWK. If no packets are shown the sender has not sent any weather packets the latest 10 day(s).

<< 400 401 402 403 404 405 406 >>
Time Temp. Humidity Pressure Rain* Wind** Luminosity Snow
1788078424 18.33° C 92% 1009.3 hPa 0.25 mm - 76 W/m² -
1788078366 18.33° C 92% 1009.3 hPa 0.25 mm - 62 W/m² -
1788078304 18.33° C 92% 1009.2 hPa 0.25 mm - 69 W/m² -
1788078243 18.33° C 92% 1009.3 hPa 0.25 mm - 76 W/m² -
1788078184 18.33° C 92% 1009.2 hPa 0.25 mm - 127 W/m² -
1788078124 18.33° C 92% 1009.1 hPa 0.25 mm - 123 W/m² -
1788078064 18.33° C 92% 1009.2 hPa 0.25 mm - 99 W/m² -
1788078004 18.33° C 92% 1009.2 hPa 0.25 mm - 78 W/m² -
1788077944 18.33° C 92% 1009.2 hPa 0.25 mm - 76 W/m² -
1788077884 18.33° C 92% 1009.1 hPa 0.25 mm - 79 W/m² -
1788077825 18.33° C 92% 1009.1 hPa 0.25 mm - 55 W/m² -
1788077763 18.33° C 92% 1009.1 hPa 0.25 mm - 60 W/m² -
1788077705 18.33° C 92% 1009.1 hPa 0.25 mm - 53 W/m² -
1788077643 18.33° C 92% 1009.1 hPa 0.25 mm - 65 W/m² -
1788077585 18.33° C 92% 1009.1 hPa 0.25 mm - 63 W/m² -
1788077523 18.33° C 92% 1009.1 hPa 0.25 mm - 90 W/m² -
1788077464 18.33° C 92% 1009.1 hPa 0.25 mm - 56 W/m² -
1788077407 18.33° C 92% 1009.1 hPa 0.25 mm - 49 W/m² -
1788077359 18.33° C 92% 1009 hPa 0.25 mm - 46 W/m² -
1788077283 18.33° C 92% 1009.1 hPa 0.25 mm - 81 W/m² -
1788077224 18.33° C 92% 1009 hPa 0.25 mm - 83 W/m² -
1788077162 18.33° C 92% 1009 hPa 0.25 mm - 65 W/m² -
1788077105 18.33° C 92% 1009.1 hPa 0.25 mm - 67 W/m² -
1788077043 18.33° C 92% 1008.9 hPa 0.25 mm - 79 W/m² -
1788076983 18.33° C 92% 1009 hPa 0.25 mm - 76 W/m² -

* Rain latest hour (hover to see other rain measurements)
** Current wind speed in m/s (hover to see current wind gust speed)